MST,Max TemperatureF,Mean TemperatureF,Min TemperatureF,Max Dew PointF,MeanDew PointF,Min DewpointF,Max Humidity, Mean Humidity, Min Humidity, Max Sea Level PressureIn, Mean Sea Level PressureIn, Min Sea Level PressureIn, Max VisibilityMiles, Mean VisibilityMiles, Min VisibilityMiles, Max Wind SpeedMPH, Mean Wind SpeedMPH, Max Gust SpeedMPH,PrecipitationIn, CloudCover, Events, WindDirDegrees
2012-12-1,66,49,32,33,28,24,64,45,25,29.92,29.85,29.76,10,10,10,32,10,43,0.00,0,,285
2012-12-2,66,47,28,30,24,17,72,44,15,29.96,29.75,29.57,10,10,10,16,7,21,0.00,0,,110
2012-12-3,60,44,27,34,21,10,70,46,22,30.22,29.94,29.52,10,10,6,39,13,51,0.00,0,,299
2012-12-4,58,38,18,21,14,10,73,46,19,30.38,30.23,30.11,10,10,10,21,6,25,0.00,0,,298
2012-12-5,68,50,32,33,26,18,56,39,22,30.11,29.87,29.73,10,10,10,31,12,41,0.00,1,,276
2012-12-6,52,41,29,35,25,21,75,60,45,30.08,29.96,29.81,10,10,10,24,11,28,T,3,,91
2012-12-7,43,31,19,24,20,15,77,59,41,30.02,29.92,29.75,10,10,10,21,9,24,0.00,3,,12
2012-12-8,44,31,17,25,19,6,81,55,28,30.00,29.80,29.64,10,10,10,32,16,52,T,4,,282
2012-12-9,22,12,2,7,2,-4,79,60,41,30.40,30.27,29.98,10,10,10,29,13,36,0.00,2,,331
2012-12-10,38,21,3,17,9,-2,84,57,29,30.16,30.02,29.94,10,10,10,25,11,32,0.00,5,,317
2012-12-11,45,27,9,18,13,6,92,61,29,30.08,29.93,29.73,10,10,10,21,9,26,0.00,0,,275
2012-12-12,61,41,21,19,14,12,68,42,15,29.88,29.77,29.67,10,10,10,26,7,32,0.00,0,,241
2012-12-13,49,35,20,19,16,13,71,50,29,30.04,29.97,29.89,10,10,10,13,7,15,0.00,0,,113
2012-12-14,42,31,20,19,17,14,77,57,36,29.88,29.72,29.60,10,10,10,12,4,14,0.00,2,,87
2012-12-15,48,35,21,23,20,16,77,57,37,29.83,29.74,29.62,10,10,10,15,7,20,0.00,3,,319
2012-12-16,46,32,18,23,17,13,96,62,28,29.83,29.75,29.67,10,10,10,37,11,45,0.00,3,,283
2012-12-17,53,34,14,28,18,9,80,55,30,29.78,29.62,29.47,10,10,10,31,13,41,0.00,2,,323
2012-12-18,43,35,27,21,9,-1,53,35,17,29.83,29.73,29.56,10,10,6,29,13,38,T,4,Snow,293
2012-12-19,30,17,3,20,14,-4,92,71,50,30.30,29.97,29.78,10,6,0,22,12,29,0.08,6,Fog-Snow,331
2012-12-20,40,21,1,14,6,-5,79,56,32,30.38,30.30,30.23,10,10,10,25,9,32,0.00,0,,304
2012-12-21,54,33,12,22,13,6,80,53,26,30.27,30.17,30.07,10,10,10,12,3,15,0.00,0,,324
2012-12-22,54,36,17,17,12,8,73,46,18,30.17,30.03,29.90,10,10,10,14,7,25,0.00,0,,335
2012-12-23,52,33,13,19,12,7,88,52,16,30.09,29.97,29.85,10,10,10,30,10,39,0.00,0,,320
2012-12-24,33,24,15,21,16,10,84,74,63,30.21,30.00,29.84,10,6,2,24,12,29,0.06,8,Snow,106
2012-12-25,15,5,-5,10,3,-8,87,77,67,30.49,30.32,30.09,10,7,2,16,5,20,0.05,5,Snow,71
2012-12-26,17,5,-7,13,2,-11,91,83,75,30.25,30.03,29.71,10,10,7,20,10,22,T,5,,116
2012-12-27,21,12,3,11,8,4,91,79,67,30.10,29.91,29.71,10,10,6,18,10,22,T,7,Snow,332
2012-12-28,32,16,0,20,10,-2,95,77,59,30.25,30.13,29.92,10,10,6,20,8,44,T,4,Snow,300
2012-12-29,36,20,3,18,9,0,92,65,38,30.31,30.22,29.97,10,10,10,12,4,13,0.00,0,,24
2012-12-30,36,21,5,16,9,2,92,68,44,30.22,30.14,30.05,10,10,9,15,6,18,0.00,0,,312
2012-12-31,25,17,8,18,13,6,100,87,74,30.24,30.14,30.02,10,7,0,8,3,12,0.00,7,Fog,114